PAY1100 FACT-FMEE

Flight info

Callsign PAY1100
Flight time 4h 45m
Altitude 33000
Route OKTED1B OKTED UQ12 DUNSA DCT EVIDO UA402 GETIR GETIR2R
Aircraft B738/M-SBDE1E2E3FGHRWXY/LB1

Departure

Time 2026-05-06 18:09
Airport Cape Town International Airport (FACT)

Arrival

Time 2026-05-06 22:55
Airport Roland Garros Airport (FMEE)
Time Latitude Longitude Altitude Speed Heading
2026-05-06 17:45 -33.97073 18.59863 162 ft 0 kts 254°
2026-05-06 17:56 -33.97072 18.59868 163 ft 0 kts 224°
2026-05-06 17:56 -33.97065 18.59870 163 ft 2 kts 175°
2026-05-06 17:56 -33.97050 18.59871 164 ft 2 kts 192°
2026-05-06 17:57 -33.97035 18.59874 165 ft 2 kts 186°
2026-05-06 17:57 -33.97021 18.59876 166 ft 1 kts 188°
2026-05-06 17:57 -33.97015 18.59878 166 ft 0 kts 232°
2026-05-06 17:57 -33.97012 18.59885 166 ft 0 kts 287°
2026-05-06 17:58 -33.97016 18.59892 166 ft 0 kts 336°
2026-05-06 17:58 -33.97021 18.59893 166 ft 1 kts 347°
2026-05-06 17:58 -33.97024 18.59894 166 ft 0 kts 345°
2026-05-06 18:02 -33.97013 18.59897 166 ft 4 kts 37°
2026-05-06 18:03 -33.96997 18.59925 167 ft 3 kts 46°
2026-05-06 18:03 -33.96974 18.59932 167 ft 2 kts 340°
2026-05-06 18:03 -33.96968 18.59929 168 ft 1 kts 340°
2026-05-06 18:03 -33.96922 18.59910 171 ft 10 kts 341°
2026-05-06 18:04 -33.96828 18.59877 175 ft 17 kts 345°
2026-05-06 18:04 -33.96700 18.59836 169 ft 20 kts 345°
2026-05-06 18:04 -33.96549 18.59790 159 ft 24 kts 347°
2026-05-06 18:04 -33.96376 18.59752 154 ft 25 kts 350°
2026-05-06 18:05 -33.96270 18.59730 153 ft 0 kts 350°
2026-05-06 18:05 -33.96269 18.59730 153 ft 0 kts 350°
2026-05-06 18:05 -33.96231 18.59734 153 ft 10 kts 16°
2026-05-06 18:05 -33.96172 18.59798 153 ft 13 kts 46°
2026-05-06 18:06 -33.96103 18.59881 156 ft 13 kts 46°
2026-05-06 18:06 -33.96068 18.59924 157 ft 0 kts 44°
2026-05-06 18:06 -33.96067 18.59924 157 ft 0 kts 44°
2026-05-06 18:07 -33.96063 18.59929 158 ft 4 kts 44°
2026-05-06 18:07 -33.96040 18.59969 158 ft 4 kts 78°
2026-05-06 18:08 -33.96046 18.60002 159 ft 5 kts 122°
2026-05-06 18:08 -33.96108 18.60047 159 ft 19 kts 163°
2026-05-06 18:08 -33.96350 18.60123 158 ft 61 kts 166°
2026-05-06 18:08 -33.96953 18.60312 158 ft 113 kts 165°
2026-05-06 18:09 -33.97861 18.60602 153 ft 155 kts 165°
2026-05-06 18:09 -33.98991 18.60968 356 ft 173 kts 165°
2026-05-06 18:09 -34.00174 18.61347 922 ft 173 kts 165°
2026-05-06 18:09 -34.01319 18.61668 1589 ft 168 kts 165°
2026-05-06 18:10 -34.02483 18.61919 1929 ft 176 kts 168°
2026-05-06 18:10 -34.03736 18.62095 2272 ft 181 kts 170°
2026-05-06 18:10 -34.04960 18.62597 2393 ft 194 kts 144°
2026-05-06 18:10 -34.06060 18.63648 2645 ft 205 kts 131°
2026-05-06 18:11 -34.06728 18.65196 2815 ft 221 kts 104°
2026-05-06 18:11 -34.06961 18.67057 3246 ft 225 kts 99°
2026-05-06 18:11 -34.07198 18.68941 3741 ft 226 kts 102°
2026-05-06 18:11 -34.07502 18.70821 4141 ft 232 kts 104°
2026-05-06 18:12 -34.07845 18.72758 4494 ft 242 kts 104°
2026-05-06 18:12 -34.08210 18.74811 4857 ft 250 kts 104°
2026-05-06 18:12 -34.08570 18.76864 5325 ft 254 kts 104°
2026-05-06 18:12 -34.08933 18.78962 5852 ft 255 kts 104°
2026-05-06 18:13 -34.09296 18.81061 6388 ft 257 kts 104°
2026-05-06 18:13 -34.09661 18.83173 6928 ft 258 kts 104°
2026-05-06 18:13 -34.10028 18.85294 7435 ft 261 kts 104°
2026-05-06 18:13 -34.10406 18.87480 7970 ft 264 kts 104°
2026-05-06 18:14 -34.10781 18.89650 8483 ft 267 kts 104°
2026-05-06 18:14 -34.11161 18.91853 9039 ft 268 kts 105°
2026-05-06 18:14 -34.11540 18.94060 9585 ft 270 kts 105°
2026-05-06 18:14 -34.11928 18.96310 10114 ft 274 kts 105°
2026-05-06 18:15 -34.12321 18.98590 10510 ft 283 kts 105°
2026-05-06 18:15 -34.12733 19.00970 10700 ft 298 kts 104°
2026-05-06 18:15 -34.13172 19.03506 10887 ft 314 kts 104°
2026-05-06 18:15 -34.13626 19.06142 11079 ft 329 kts 104°
2026-05-06 18:16 -34.14103 19.08923 11277 ft 343 kts 104°
2026-05-06 18:16 -34.14545 19.11841 11418 ft 360 kts 98°
2026-05-06 18:16 -34.14535 19.14882 11898 ft 368 kts 89°
2026-05-06 18:16 -34.14248 19.17981 12344 ft 375 kts 85°
2026-05-06 18:17 -34.13858 19.21144 12838 ft 380 kts 84°
2026-05-06 18:17 -34.13459 19.24348 13355 ft 384 kts 85°
2026-05-06 18:17 -34.13093 19.27530 13855 ft 389 kts 86°
2026-05-06 18:17 -34.12747 19.30804 14423 ft 392 kts 86°
2026-05-06 18:18 -34.12418 19.34120 14959 ft 396 kts 87°
2026-05-06 18:18 -34.12101 19.37434 15505 ft 399 kts 87°
2026-05-06 18:18 -34.11783 19.40796 16057 ft 403 kts 87°
2026-05-06 18:18 -34.11468 19.44139 16581 ft 406 kts 87°
2026-05-06 18:19 -34.11147 19.47535 17087 ft 409 kts 87°
2026-05-06 18:19 -34.10820 19.50968 17627 ft 411 kts 87°
2026-05-06 18:19 -34.10487 19.54395 18116 ft 414 kts 86°
2026-05-06 18:19 -34.09932 19.57833 18545 ft 421 kts 79°
2026-05-06 18:20 -34.09098 19.61250 18972 ft 427 kts 75°
2026-05-06 18:20 -34.08124 19.64616 19478 ft 429 kts 73°
2026-05-06 18:20 -34.07083 19.68066 19877 ft 434 kts 72°
2026-05-06 18:20 -34.06054 19.71491 20327 ft 437 kts 72°
2026-05-06 18:21 -34.05029 19.74971 20698 ft 441 kts 73°
2026-05-06 18:21 -34.04007 19.78498 21129 ft 445 kts 73°
2026-05-06 18:21 -34.03010 19.81993 21506 ft 448 kts 73°
2026-05-06 18:21 -34.01996 19.85582 21873 ft 452 kts 73°
2026-05-06 18:22 -34.00979 19.89202 22236 ft 456 kts 73°
2026-05-06 18:22 -33.99952 19.92868 22550 ft 461 kts 73°
2026-05-06 18:22 -33.98929 19.96523 22967 ft 462 kts 73°
2026-05-06 18:22 -33.97887 20.00247 23280 ft 467 kts 73°
2026-05-06 18:23 -33.96852 20.03940 23688 ft 469 kts 73°
2026-05-06 18:23 -33.95794 20.07714 24145 ft 470 kts 73°
2026-05-06 18:23 -33.94751 20.11428 24537 ft 472 kts 73°
2026-05-06 18:23 -33.93682 20.15232 24994 ft 473 kts 73°
2026-05-06 18:24 -33.92622 20.18997 25337 ft 476 kts 73°
2026-05-06 18:24 -33.91557 20.22775 25787 ft 476 kts 73°
2026-05-06 18:24 -33.90491 20.26552 26188 ft 478 kts 73°
2026-05-06 18:24 -33.89409 20.30376 26625 ft 478 kts 73°
2026-05-06 18:25 -33.88338 20.34158 26968 ft 479 kts 73°
2026-05-06 18:25 -33.87260 20.37962 27357 ft 480 kts 73°
2026-05-06 18:25 -33.86175 20.41787 27839 ft 478 kts 73°
2026-05-06 18:25 -33.85091 20.45599 28340 ft 476 kts 73°
2026-05-06 18:26 -33.84029 20.49330 28813 ft 473 kts 73°
2026-05-06 18:26 -33.82959 20.53085 29294 ft 471 kts 73°
2026-05-06 18:26 -33.81890 20.56827 29758 ft 468 kts 73°
2026-05-06 18:26 -33.80832 20.60529 30238 ft 465 kts 73°
2026-05-06 18:27 -33.79779 20.64211 30662 ft 462 kts 73°
2026-05-06 18:27 -33.78737 20.67854 31098 ft 459 kts 73°
2026-05-06 18:27 -33.77689 20.71512 31557 ft 455 kts 73°
2026-05-06 18:27 -33.76644 20.75149 32060 ft 450 kts 73°
2026-05-06 18:28 -33.75628 20.78681 32510 ft 446 kts 73°
2026-05-06 18:28 -33.74612 20.82208 32941 ft 442 kts 74°
2026-05-06 18:28 -33.73607 20.85698 33096 ft 443 kts 73°
2026-05-06 18:28 -33.72591 20.89222 33099 ft 445 kts 74°
2026-05-06 18:29 -33.70568 20.96228 33094 ft 442 kts 74°
2026-05-06 18:29 -33.68537 21.03245 33088 ft 445 kts 74°
2026-05-06 18:30 -33.66507 21.10239 33081 ft 444 kts 74°
2026-05-06 18:30 -33.64458 21.17280 33080 ft 443 kts 74°
2026-05-06 18:31 -33.62410 21.24298 33080 ft 444 kts 74°
2026-05-06 18:31 -33.60356 21.31319 33062 ft 445 kts 74°
2026-05-06 18:32 -33.58297 21.38344 33057 ft 444 kts 75°
2026-05-06 18:32 -33.56227 21.45377 33053 ft 445 kts 75°
2026-05-06 18:33 -33.54161 21.52378 33037 ft 443 kts 75°
2026-05-06 18:33 -33.52090 21.59390 33039 ft 447 kts 75°
2026-05-06 18:34 -33.50005 21.66436 33041 ft 446 kts 75°
2026-05-06 18:34 -33.47926 21.73448 33034 ft 447 kts 74°
2026-05-06 18:35 -33.45839 21.80466 33027 ft 447 kts 75°
2026-05-06 18:35 -33.43735 21.87512 33021 ft 447 kts 75°
2026-05-06 18:36 -33.41638 21.94527 33016 ft 446 kts 75°
2026-05-06 18:36 -33.39533 22.01566 33014 ft 449 kts 75°
2026-05-06 18:37 -33.37415 22.08623 33013 ft 448 kts 75°
2026-05-06 18:37 -33.35273 22.15733 33002 ft 447 kts 75°
2026-05-06 18:38 -33.33146 22.22779 32998 ft 451 kts 76°
2026-05-06 18:38 -33.31010 22.29842 32988 ft 449 kts 75°
2026-05-06 18:39 -33.28867 22.36912 32981 ft 452 kts 76°
2026-05-06 18:40 -33.25624 22.47578 32973 ft 452 kts 76°
2026-05-06 18:40 -33.23466 22.54657 32963 ft 454 kts 76°
2026-05-06 18:41 -33.21289 22.61786 32958 ft 455 kts 76°
2026-05-06 18:41 -33.19127 22.68837 32961 ft 454 kts 75°
2026-05-06 18:42 -33.16930 22.75986 32953 ft 456 kts 75°
2026-05-06 18:42 -33.14741 22.83081 32952 ft 455 kts 75°
2026-05-06 18:43 -33.12545 22.90213 32948 ft 456 kts 75°
2026-05-06 18:43 -33.10346 22.97318 32945 ft 458 kts 76°
2026-05-06 18:44 -33.08140 23.04439 32942 ft 459 kts 76°
2026-05-06 18:44 -33.05904 23.11636 32925 ft 458 kts 76°
2026-05-06 18:45 -33.03680 23.18780 32918 ft 459 kts 76°
2026-05-06 18:45 -33.01439 23.25965 32899 ft 462 kts 76°
2026-05-06 18:46 -32.99190 23.33150 32901 ft 461 kts 76°
2026-05-06 18:46 -32.96924 23.40380 32903 ft 463 kts 76°
2026-05-06 18:47 -32.94661 23.47573 32883 ft 465 kts 76°
2026-05-06 18:47 -32.92365 23.54866 32886 ft 464 kts 76°
2026-05-06 18:48 -32.90075 23.62112 32869 ft 467 kts 76°
2026-05-06 18:48 -32.87829 23.69213 32868 ft 469 kts 76°
2026-05-06 18:49 -32.85506 23.76528 32840 ft 468 kts 76°
2026-05-06 18:49 -32.83182 23.83843 32843 ft 473 kts 76°
2026-05-06 18:50 -32.80818 23.91253 32841 ft 474 kts 76°
2026-05-06 18:50 -32.78477 23.98565 32841 ft 472 kts 76°
2026-05-06 18:51 -32.76107 24.05975 32804 ft 475 kts 76°
2026-05-06 18:51 -32.73750 24.13318 32815 ft 476 kts 75°
2026-05-06 18:52 -32.71376 24.20679 32780 ft 474 kts 75°
2026-05-06 18:52 -32.69003 24.28042 32771 ft 478 kts 75°
2026-05-06 18:53 -32.66610 24.35449 32771 ft 479 kts 75°
2026-05-06 18:53 -32.64198 24.42893 32776 ft 480 kts 75°
2026-05-06 18:54 -32.61772 24.50362 32795 ft 483 kts 74°
2026-05-06 18:54 -32.59348 24.57799 32727 ft 482 kts 74°
2026-05-06 18:55 -32.56913 24.65247 32757 ft 484 kts 73°
2026-05-06 18:55 -32.54469 24.72707 32789 ft 485 kts 73°
2026-05-06 18:56 -32.52025 24.80154 32767 ft 482 kts 72°
2026-05-06 18:56 -32.49562 24.87640 32771 ft 485 kts 72°
2026-05-06 18:57 -32.47092 24.95134 32761 ft 483 kts 72°
2026-05-06 18:57 -32.44614 25.02640 32754 ft 484 kts 72°
2026-05-06 18:58 -32.42139 25.10121 32769 ft 485 kts 72°
2026-05-06 18:58 -32.39670 25.17558 32755 ft 485 kts 71°
2026-05-06 18:59 -32.37191 25.25007 32750 ft 485 kts 71°
2026-05-06 18:59 -32.34686 25.32514 32757 ft 486 kts 71°
2026-05-06 19:00 -32.32178 25.40021 32749 ft 484 kts 70°
2026-05-06 19:00 -32.29681 25.47481 32752 ft 488 kts 70°
2026-05-06 19:01 -32.27170 25.54962 32751 ft 486 kts 70°
2026-05-06 19:01 -32.24656 25.62430 32741 ft 489 kts 70°
2026-05-06 19:02 -32.22131 25.69913 32739 ft 488 kts 69°
2026-05-06 19:02 -32.19603 25.77392 32743 ft 489 kts 69°
2026-05-06 19:03 -32.17071 25.84864 32744 ft 488 kts 69°
2026-05-06 19:03 -32.14526 25.92361 32760 ft 488 kts 69°
2026-05-06 19:04 -32.11995 25.99797 32758 ft 486 kts 68°
2026-05-06 19:04 -32.09463 26.07217 32749 ft 489 kts 68°
2026-05-06 19:05 -32.06905 26.14696 32744 ft 489 kts 68°
2026-05-06 19:05 -32.04339 26.22186 32736 ft 492 kts 68°
2026-05-06 19:06 -32.01766 26.29673 32732 ft 492 kts 68°
2026-05-06 19:06 -31.99210 26.37095 32745 ft 491 kts 67°
2026-05-06 19:07 -31.96623 26.44588 32737 ft 491 kts 67°
2026-05-06 19:07 -31.94033 26.52075 32738 ft 493 kts 67°
2026-05-06 19:08 -31.91452 26.59524 32737 ft 494 kts 67°
2026-05-06 19:08 -31.88849 26.67012 32728 ft 493 kts 66°
2026-05-06 19:09 -31.86206 26.74606 32742 ft 494 kts 66°
2026-05-06 19:09 -31.83583 26.82118 32731 ft 494 kts 66°
2026-05-06 19:10 -31.80967 26.89598 32743 ft 494 kts 66°
2026-05-06 19:10 -31.78330 26.97123 32748 ft 492 kts 65°
2026-05-06 19:11 -31.75660 27.04718 32754 ft 493 kts 65°
2026-05-06 19:11 -31.73017 27.12221 32748 ft 495 kts 65°
2026-05-06 19:12 -31.70385 27.19674 32755 ft 492 kts 65°
2026-05-06 19:12 -31.67760 27.27088 32756 ft 496 kts 65°
2026-05-06 19:13 -31.65100 27.34594 32749 ft 493 kts 65°
2026-05-06 19:13 -31.62454 27.42046 32756 ft 492 kts 65°
2026-05-06 19:14 -31.59810 27.49469 32748 ft 493 kts 65°
2026-05-06 19:14 -31.57172 27.56854 32740 ft 492 kts 65°
2026-05-06 19:15 -31.54523 27.64261 32754 ft 493 kts 64°
2026-05-06 19:15 -31.51849 27.71722 32759 ft 490 kts 64°
2026-05-06 19:16 -31.49174 27.79168 32760 ft 491 kts 63°
2026-05-06 19:16 -31.46509 27.86570 32747 ft 488 kts 64°
2026-05-06 19:17 -31.43863 27.93906 32763 ft 488 kts 63°
2026-05-06 19:17 -31.41208 28.01246 32767 ft 489 kts 63°
2026-05-06 19:18 -31.38550 28.08588 32769 ft 487 kts 63°
2026-05-06 19:18 -31.35856 28.16007 32770 ft 487 kts 62°
2026-05-06 19:19 -31.33196 28.23313 32761 ft 486 kts 63°
2026-05-06 19:19 -31.30521 28.30639 32765 ft 487 kts 62°
2026-05-06 19:20 -31.27857 28.37927 32766 ft 487 kts 62°
2026-05-06 19:20 -31.25154 28.45303 32763 ft 485 kts 62°
2026-05-06 19:21 -31.22462 28.52644 32766 ft 483 kts 62°
2026-05-06 19:21 -31.19800 28.59877 32764 ft 483 kts 62°
2026-05-06 19:22 -31.17151 28.67066 32763 ft 482 kts 60°
2026-05-06 19:22 -31.14462 28.74348 32760 ft 480 kts 60°
2026-05-06 19:23 -31.11771 28.81622 32765 ft 480 kts 60°
2026-05-06 19:23 -31.09131 28.88750 32758 ft 475 kts 59°
2026-05-06 19:24 -31.06473 28.95896 32764 ft 477 kts 59°
2026-05-06 19:24 -31.03823 29.03017 32771 ft 472 kts 59°
2026-05-06 19:25 -31.01160 29.10140 32770 ft 476 kts 59°
2026-05-06 19:25 -30.98512 29.17219 32773 ft 473 kts 59°
2026-05-06 19:26 -30.95850 29.24317 32770 ft 477 kts 59°
2026-05-06 19:26 -30.93171 29.31438 32780 ft 479 kts 58°
2026-05-06 19:27 -30.90497 29.38561 32766 ft 475 kts 58°
2026-05-06 19:27 -30.87826 29.45647 32773 ft 478 kts 58°
2026-05-06 19:28 -30.85150 29.52735 32781 ft 480 kts 58°
2026-05-06 19:28 -30.82451 29.59866 32794 ft 480 kts 57°
2026-05-06 19:29 -30.79732 29.67031 32772 ft 481 kts 57°
2026-05-06 19:29 -30.77044 29.74109 32779 ft 480 kts 57°
2026-05-06 19:30 -30.74332 29.81232 32776 ft 482 kts 57°
2026-05-06 19:30 -30.71596 29.88407 32784 ft 482 kts 56°
2026-05-06 19:31 -30.68880 29.95519 32786 ft 480 kts 56°
2026-05-06 19:31 -30.64771 30.06227 32806 ft 485 kts 56°
2026-05-06 19:32 -30.62035 30.13361 32800 ft 477 kts 56°
2026-05-06 19:32 -30.59319 30.20421 32786 ft 480 kts 56°
2026-05-06 19:33 -30.56583 30.27497 32764 ft 483 kts 56°
2026-05-06 19:33 -30.53850 30.34571 32755 ft 479 kts 56°
2026-05-06 19:34 -30.51115 30.41641 32747 ft 476 kts 55°
2026-05-06 19:34 -30.48388 30.48672 32768 ft 478 kts 55°
2026-05-06 19:35 -30.45648 30.55711 32767 ft 477 kts 55°
2026-05-06 19:35 -30.42911 30.62741 32762 ft 478 kts 54°
2026-05-06 19:36 -30.40191 30.69730 32742 ft 473 kts 54°
2026-05-06 19:36 -30.37462 30.76704 32738 ft 476 kts 54°
2026-05-06 19:37 -30.34740 30.83656 32736 ft 469 kts 54°
2026-05-06 19:37 -30.32031 30.90563 32749 ft 471 kts 54°
2026-05-06 19:38 -30.29305 30.97481 32737 ft 473 kts 54°
2026-05-06 19:38 -30.26576 31.04407 32735 ft 469 kts 54°
2026-05-06 19:39 -30.23857 31.11301 32729 ft 468 kts 53°
2026-05-06 19:39 -30.21140 31.18157 32734 ft 472 kts 53°
2026-05-06 19:40 -30.18399 31.25066 32740 ft 471 kts 53°
2026-05-06 19:40 -30.15655 31.31978 32732 ft 471 kts 53°
2026-05-06 19:41 -30.12910 31.38887 32729 ft 472 kts 53°
2026-05-06 19:41 -30.10179 31.45748 32729 ft 470 kts 53°
2026-05-06 19:42 -30.07458 31.52564 32725 ft 471 kts 53°
2026-05-06 19:42 -30.04707 31.59438 32731 ft 471 kts 53°
2026-05-06 19:43 -30.01949 31.66313 32741 ft 470 kts 53°
2026-05-06 19:43 -29.99197 31.73176 32740 ft 471 kts 53°
2026-05-06 19:44 -29.96428 31.80055 32738 ft 468 kts 53°
2026-05-06 19:44 -29.93709 31.86819 32745 ft 469 kts 53°
2026-05-06 19:45 -29.90954 31.93638 32740 ft 466 kts 52°
2026-05-06 19:45 -29.88211 32.00417 32749 ft 469 kts 52°
2026-05-06 19:46 -29.85451 32.07233 32748 ft 466 kts 52°
2026-05-06 19:46 -29.82698 32.14019 32749 ft 469 kts 52°
2026-05-06 19:47 -29.79922 32.20821 32746 ft 471 kts 52°
2026-05-06 19:47 -29.77144 32.27652 32755 ft 468 kts 52°
2026-05-06 19:48 -29.74362 32.34472 32748 ft 469 kts 52°
2026-05-06 19:48 -29.71576 32.41278 32755 ft 473 kts 52°
2026-05-06 19:49 -29.68772 32.48126 32753 ft 469 kts 52°
2026-05-06 19:49 -29.65975 32.54957 32755 ft 468 kts 52°
2026-05-06 19:50 -29.63192 32.61721 32761 ft 471 kts 52°
2026-05-06 19:50 -29.60354 32.68607 32758 ft 470 kts 52°
2026-05-06 19:51 -29.57564 32.75376 32763 ft 470 kts 52°
2026-05-06 19:51 -29.54745 32.82192 32766 ft 473 kts 52°
2026-05-06 19:52 -29.51914 32.89026 32767 ft 474 kts 52°
2026-05-06 19:52 -29.49086 32.95849 32770 ft 474 kts 52°
2026-05-06 19:53 -29.46258 33.02660 32770 ft 473 kts 51°
2026-05-06 19:53 -29.43408 33.09497 32773 ft 476 kts 51°
2026-05-06 19:54 -29.40547 33.16355 32772 ft 473 kts 52°
2026-05-06 19:54 -29.37717 33.23148 32778 ft 473 kts 52°
2026-05-06 19:55 -29.34894 33.29894 32778 ft 472 kts 52°
2026-05-06 19:55 -29.32050 33.36678 32783 ft 472 kts 52°
2026-05-06 19:56 -29.29189 33.43482 32790 ft 470 kts 52°
2026-05-06 19:56 -29.26349 33.50217 32784 ft 475 kts 52°
2026-05-06 19:57 -29.23482 33.57012 32782 ft 473 kts 52°
2026-05-06 19:57 -29.20602 33.63849 32783 ft 471 kts 52°
2026-05-06 19:58 -29.17708 33.70689 32779 ft 473 kts 52°
2026-05-06 19:58 -29.14822 33.77496 32778 ft 470 kts 52°
2026-05-06 19:59 -29.11991 33.84190 32779 ft 469 kts 52°
2026-05-06 19:59 -29.09129 33.90907 32779 ft 471 kts 52°
2026-05-06 20:00 -29.06255 33.97655 32781 ft 473 kts 52°
2026-05-06 20:00 -29.03358 34.04436 32783 ft 473 kts 52°
2026-05-06 20:01 -29.00467 34.11193 32787 ft 474 kts 52°
2026-05-06 20:01 -28.97584 34.17934 32783 ft 474 kts 52°
2026-05-06 20:02 -28.94694 34.24678 32787 ft 471 kts 52°
2026-05-06 20:02 -28.91784 34.31450 32789 ft 472 kts 53°
2026-05-06 20:03 -28.88882 34.38186 32791 ft 475 kts 53°
2026-05-06 20:03 -28.86123 34.45081 32796 ft 480 kts 57°
2026-05-06 20:04 -28.83717 34.52275 32809 ft 486 kts 59°
2026-05-06 20:04 -28.81426 34.59537 32805 ft 485 kts 60°
2026-05-06 20:05 -28.79147 34.66766 32806 ft 486 kts 59°
2026-05-06 20:05 -28.76840 34.73996 32802 ft 483 kts 59°
2026-05-06 20:06 -28.74518 34.81181 32808 ft 486 kts 59°
2026-05-06 20:06 -28.72184 34.88376 32807 ft 483 kts 59°
2026-05-06 20:07 -28.69836 34.95571 32811 ft 484 kts 59°
2026-05-06 20:07 -28.67492 35.02745 32805 ft 484 kts 59°
2026-05-06 20:08 -28.65118 35.09981 32802 ft 488 kts 59°
2026-05-06 20:08 -28.62750 35.17204 32803 ft 486 kts 59°
2026-05-06 20:09 -28.60382 35.24422 32803 ft 485 kts 60°
2026-05-06 20:09 -28.58005 35.31631 32805 ft 489 kts 59°
2026-05-06 20:10 -28.55603 35.38880 32807 ft 490 kts 60°
2026-05-06 20:10 -28.53208 35.46126 32810 ft 487 kts 60°
2026-05-06 20:11 -28.50816 35.53347 32819 ft 489 kts 60°
2026-05-06 20:11 -28.48410 35.60589 32822 ft 489 kts 60°
2026-05-06 20:12 -28.45994 35.67851 32830 ft 490 kts 60°
2026-05-06 20:12 -28.43594 35.75064 32827 ft 488 kts 60°
2026-05-06 20:13 -28.41170 35.82317 32826 ft 491 kts 60°
2026-05-06 20:13 -28.38733 35.89595 32831 ft 491 kts 60°
2026-05-06 20:14 -28.36316 35.96829 32831 ft 490 kts 60°
2026-05-06 20:14 -28.33949 36.04165 32837 ft 496 kts 61°
2026-05-06 20:15 -28.31615 36.11508 32844 ft 493 kts 62°
2026-05-06 20:15 -28.29276 36.18850 32846 ft 495 kts 62°
2026-05-06 20:16 -28.26931 36.26179 32851 ft 493 kts 62°
2026-05-06 20:16 -28.24581 36.33484 32851 ft 492 kts 62°
2026-05-06 20:17 -28.22204 36.40833 32854 ft 494 kts 61°
2026-05-06 20:17 -28.19843 36.48127 32858 ft 492 kts 62°
2026-05-06 20:18 -28.17461 36.55457 32863 ft 495 kts 62°
2026-05-06 20:18 -28.15095 36.62735 32862 ft 492 kts 62°
2026-05-06 20:19 -28.12718 36.70028 32869 ft 491 kts 61°
2026-05-06 20:19 -28.10337 36.77311 32876 ft 494 kts 62°
2026-05-06 20:20 -28.07941 36.84628 32879 ft 493 kts 62°
2026-05-06 20:20 -28.05563 36.91890 32871 ft 492 kts 62°
2026-05-06 20:21 -28.03168 36.99173 32864 ft 491 kts 62°
2026-05-06 20:21 -28.00768 37.06450 32866 ft 493 kts 62°
2026-05-06 20:22 -27.98372 37.13708 32871 ft 492 kts 62°
2026-05-06 20:22 -27.95969 37.20976 32877 ft 492 kts 62°
2026-05-06 20:23 -27.93554 37.28265 32880 ft 493 kts 62°
2026-05-06 20:23 -27.91148 37.35509 32884 ft 492 kts 62°
2026-05-06 20:24 -27.88716 37.42814 32895 ft 495 kts 62°
2026-05-06 20:24 -27.86307 37.50042 32897 ft 492 kts 62°
2026-05-06 20:25 -27.83884 37.57301 32900 ft 493 kts 62°
2026-05-06 20:25 -27.81444 37.64585 32906 ft 493 kts 62°
2026-05-06 20:26 -27.79025 37.71806 32910 ft 491 kts 62°
2026-05-06 20:26 -27.76587 37.79055 32909 ft 494 kts 62°
2026-05-06 20:27 -27.74148 37.86295 32915 ft 492 kts 62°
2026-05-06 20:27 -27.71708 37.93524 32918 ft 492 kts 62°
2026-05-06 20:28 -27.69257 38.00767 32912 ft 494 kts 62°
2026-05-06 20:28 -27.66821 38.07966 32913 ft 492 kts 62°
2026-05-06 20:29 -27.64373 38.15179 32915 ft 492 kts 62°
2026-05-06 20:29 -27.61928 38.22367 32922 ft 493 kts 62°
2026-05-06 20:30 -27.58227 38.33213 32924 ft 494 kts 62°
2026-05-06 20:31 -27.55755 38.40448 32926 ft 495 kts 63°
2026-05-06 20:31 -27.53270 38.47699 32926 ft 495 kts 63°
2026-05-06 20:32 -27.50800 38.54902 32933 ft 494 kts 63°
2026-05-06 20:32 -27.48303 38.62162 32931 ft 495 kts 63°
2026-05-06 20:33 -27.45828 38.69349 32932 ft 494 kts 62°
2026-05-06 20:33 -27.43341 38.76556 32940 ft 494 kts 62°
2026-05-06 20:34 -27.40855 38.83738 32939 ft 494 kts 62°
2026-05-06 20:34 -27.38361 38.90935 32942 ft 494 kts 62°
2026-05-06 20:35 -27.35853 38.98156 32948 ft 494 kts 62°
2026-05-06 20:35 -27.33345 39.05367 32951 ft 496 kts 62°
2026-05-06 20:36 -27.30832 39.12579 32959 ft 496 kts 62°
2026-05-06 20:36 -27.28308 39.19807 32964 ft 495 kts 63°
2026-05-06 20:37 -27.25783 39.27023 32973 ft 496 kts 63°
2026-05-06 20:37 -27.23263 39.34209 32971 ft 496 kts 63°
2026-05-06 20:38 -27.20740 39.41395 32973 ft 495 kts 63°
2026-05-06 20:38 -27.18210 39.48589 32976 ft 495 kts 63°
2026-05-06 20:39 -27.15661 39.55815 32979 ft 496 kts 63°
2026-05-06 20:39 -27.13125 39.62993 32978 ft 495 kts 63°
2026-05-06 20:40 -27.10589 39.70166 32979 ft 494 kts 62°
2026-05-06 20:40 -27.08048 39.77328 32980 ft 493 kts 62°
2026-05-06 20:41 -27.05521 39.84443 32981 ft 492 kts 62°
2026-05-06 20:41 -27.02976 39.91590 32985 ft 494 kts 62°
2026-05-06 20:42 -27.00443 39.98721 32985 ft 494 kts 64°
2026-05-06 20:42 -26.98246 40.06074 32987 ft 498 kts 68°
2026-05-06 20:43 -26.96353 40.13562 32987 ft 500 kts 69°
2026-05-06 20:43 -26.94510 40.21107 32987 ft 500 kts 70°
2026-05-06 20:44 -26.92645 40.28648 32987 ft 500 kts 69°
2026-05-06 20:44 -26.90755 40.36142 32987 ft 500 kts 69°
2026-05-06 20:45 -26.88846 40.43623 32987 ft 499 kts 69°
2026-05-06 20:45 -26.86926 40.51087 32986 ft 500 kts 69°
2026-05-06 20:46 -26.84999 40.58554 32986 ft 498 kts 69°
2026-05-06 20:46 -26.83058 40.66051 32982 ft 499 kts 69°
2026-05-06 20:47 -26.81128 40.73496 32981 ft 498 kts 69°
2026-05-06 20:47 -26.79196 40.80931 32981 ft 498 kts 69°
2026-05-06 20:48 -26.77254 40.88387 32985 ft 497 kts 69°
2026-05-06 20:48 -26.75316 40.95805 32985 ft 498 kts 69°
2026-05-06 20:49 -26.73381 41.03203 32989 ft 497 kts 69°
2026-05-06 20:49 -26.71429 41.10643 32989 ft 498 kts 69°
2026-05-06 20:50 -26.69459 41.18127 32990 ft 499 kts 69°
2026-05-06 20:50 -26.67504 41.25549 32990 ft 498 kts 69°
2026-05-06 20:51 -26.65533 41.33013 32992 ft 497 kts 69°
2026-05-06 20:51 -26.63584 41.40381 32995 ft 497 kts 69°
2026-05-06 20:52 -26.61616 41.47787 32998 ft 498 kts 69°
2026-05-06 20:52 -26.59648 41.55188 32998 ft 497 kts 69°
2026-05-06 20:53 -26.57682 41.62563 33000 ft 497 kts 69°
2026-05-06 20:53 -26.55703 41.69970 32999 ft 496 kts 69°
2026-05-06 20:54 -26.53734 41.77323 33003 ft 495 kts 69°
2026-05-06 20:54 -26.51749 41.84718 32997 ft 495 kts 69°
2026-05-06 20:55 -26.49775 41.92051 33003 ft 495 kts 69°
2026-05-06 20:55 -26.47780 41.99450 32995 ft 494 kts 69°
2026-05-06 20:56 -26.45808 42.06744 33001 ft 494 kts 69°
2026-05-06 20:56 -26.43818 42.14093 32994 ft 494 kts 69°
2026-05-06 20:57 -26.41822 42.21440 32998 ft 496 kts 69°
2026-05-06 20:57 -26.39814 42.28818 32996 ft 495 kts 69°
2026-05-06 20:58 -26.37815 42.36149 32995 ft 495 kts 69°
2026-05-06 20:58 -26.35801 42.43518 32995 ft 496 kts 69°
2026-05-06 20:59 -26.33792 42.50857 33000 ft 495 kts 69°
2026-05-06 20:59 -26.31776 42.58201 32996 ft 497 kts 69°
2026-05-06 21:00 -26.29747 42.65578 32991 ft 495 kts 69°
2026-05-06 21:00 -26.27722 42.72917 32992 ft 496 kts 69°
2026-05-06 21:01 -26.25691 42.80266 32989 ft 496 kts 69°
2026-05-06 21:01 -26.23651 42.87631 32990 ft 495 kts 69°
2026-05-06 21:02 -26.21630 42.94912 32992 ft 495 kts 69°
2026-05-06 21:02 -26.19589 43.02252 32997 ft 497 kts 69°
2026-05-06 21:03 -26.17549 43.09568 33011 ft 496 kts 70°
2026-05-06 21:03 -26.15504 43.16896 33010 ft 497 kts 69°
2026-05-06 21:04 -26.13453 43.24226 33012 ft 496 kts 70°
2026-05-06 21:04 -26.11392 43.31569 33013 ft 497 kts 70°
2026-05-06 21:05 -26.09344 43.38856 33014 ft 495 kts 70°
2026-05-06 21:05 -26.07278 43.46189 33010 ft 496 kts 70°
2026-05-06 21:06 -26.05212 43.53503 33020 ft 495 kts 70°
2026-05-06 21:06 -26.03156 43.60772 33014 ft 493 kts 70°
2026-05-06 21:07 -26.01097 43.68036 33004 ft 492 kts 69°
2026-05-06 21:07 -25.99036 43.75290 33001 ft 492 kts 69°
2026-05-06 21:08 -25.96957 43.82590 33004 ft 494 kts 70°
2026-05-06 21:08 -25.94896 43.89814 33006 ft 493 kts 70°
2026-05-06 21:09 -25.92827 43.97055 33008 ft 491 kts 70°
2026-05-06 21:09 -25.90764 44.04253 33008 ft 490 kts 70°
2026-05-06 21:10 -25.88694 44.11466 33008 ft 490 kts 70°
2026-05-06 21:10 -25.86609 44.18715 33008 ft 491 kts 70°
2026-05-06 21:11 -25.84531 44.25923 33008 ft 491 kts 70°
2026-05-06 21:11 -25.82451 44.33128 33008 ft 491 kts 70°
2026-05-06 21:12 -25.80355 44.40368 33008 ft 490 kts 70°
2026-05-06 21:12 -25.78256 44.47605 33007 ft 490 kts 70°
2026-05-06 21:13 -25.76151 44.54850 33007 ft 490 kts 70°
2026-05-06 21:13 -25.74052 44.62056 33006 ft 490 kts 70°
2026-05-06 21:14 -25.71953 44.69248 33004 ft 489 kts 70°
2026-05-06 21:14 -25.69854 44.76427 33006 ft 490 kts 70°
2026-05-06 21:15 -25.67742 44.83634 33007 ft 489 kts 70°
2026-05-06 21:15 -25.65631 44.90821 33008 ft 490 kts 70°
2026-05-06 21:16 -25.63521 44.97992 33007 ft 489 kts 70°
2026-05-06 21:16 -25.61404 45.05175 33008 ft 489 kts 70°
2026-05-06 21:17 -25.59290 45.12329 33011 ft 489 kts 70°
2026-05-06 21:17 -25.57154 45.19545 33020 ft 490 kts 70°
2026-05-06 21:18 -25.55030 45.26706 33026 ft 489 kts 70°
2026-05-06 21:18 -25.52897 45.33883 33027 ft 490 kts 70°
2026-05-06 21:19 -25.50764 45.41047 33029 ft 489 kts 70°
2026-05-06 21:19 -25.48621 45.48229 33029 ft 489 kts 70°
2026-05-06 21:20 -25.46487 45.55368 33027 ft 489 kts 70°
2026-05-06 21:20 -25.44337 45.62543 33021 ft 490 kts 70°
2026-05-06 21:21 -25.42182 45.69721 33018 ft 489 kts 70°
2026-05-06 21:21 -25.40014 45.76932 33014 ft 490 kts 70°
2026-05-06 21:22 -25.37852 45.84106 33014 ft 490 kts 69°
2026-05-06 21:22 -25.35688 45.91275 33015 ft 491 kts 69°
2026-05-06 21:23 -25.33529 45.98413 33016 ft 489 kts 69°
2026-05-06 21:23 -25.31358 46.05576 33016 ft 490 kts 70°
2026-05-06 21:24 -25.29193 46.12702 33015 ft 489 kts 70°
2026-05-06 21:24 -25.27021 46.19837 33013 ft 490 kts 70°
2026-05-06 21:25 -25.24836 46.27004 33010 ft 489 kts 70°
2026-05-06 21:25 -25.22644 46.34181 33009 ft 490 kts 70°
2026-05-06 21:26 -25.20460 46.41314 33010 ft 491 kts 70°
2026-05-06 21:26 -25.18276 46.48434 33011 ft 490 kts 70°
2026-05-06 21:27 -25.16081 46.55578 33012 ft 488 kts 70°
2026-05-06 21:27 -25.13892 46.62689 33013 ft 488 kts 70°
2026-05-06 21:28 -25.11698 46.69801 33015 ft 489 kts 69°
2026-05-06 21:28 -25.09494 46.76933 33015 ft 488 kts 69°
2026-05-06 21:29 -25.07288 46.84056 33013 ft 488 kts 69°
2026-05-06 21:29 -25.05091 46.91138 33012 ft 490 kts 69°
2026-05-06 21:30 -25.02824 46.98262 33016 ft 490 kts 67°
2026-05-06 21:30 -25.00204 47.05241 33011 ft 488 kts 65°
2026-05-06 21:31 -24.97483 47.12045 33014 ft 487 kts 64°
2026-05-06 21:31 -24.94743 47.18910 33020 ft 488 kts 65°
2026-05-06 21:32 -24.92035 47.25790 33023 ft 488 kts 65°
2026-05-06 21:32 -24.88028 47.36072 33023 ft 488 kts 65°
2026-05-06 21:33 -24.85361 47.42958 33029 ft 489 kts 65°
2026-05-06 21:33 -24.82691 47.49862 33036 ft 490 kts 65°
2026-05-06 21:34 -24.80022 47.56749 33032 ft 490 kts 65°
2026-05-06 21:34 -24.77348 47.63636 33037 ft 489 kts 65°
2026-05-06 21:35 -24.74649 47.70576 33035 ft 489 kts 65°
2026-05-06 21:35 -24.71975 47.77434 33036 ft 489 kts 65°
2026-05-06 21:36 -24.69274 47.84351 33037 ft 489 kts 65°
2026-05-06 21:36 -24.66571 47.91259 33034 ft 489 kts 65°
2026-05-06 21:37 -24.63887 47.98112 33039 ft 490 kts 65°
2026-05-06 21:37 -24.61188 48.04990 33035 ft 489 kts 65°
2026-05-06 21:38 -24.58486 48.11869 33035 ft 489 kts 65°
2026-05-06 21:38 -24.55767 48.18778 33039 ft 491 kts 65°
2026-05-06 21:39 -24.53057 48.25651 33037 ft 491 kts 65°
2026-05-06 21:39 -24.50345 48.32518 33043 ft 490 kts 65°
2026-05-06 21:40 -24.47629 48.39385 33045 ft 490 kts 65°
2026-05-06 21:40 -24.44892 48.46294 33050 ft 489 kts 65°
2026-05-06 21:41 -24.42173 48.53147 33049 ft 490 kts 65°
2026-05-06 21:41 -24.39463 48.59966 33050 ft 488 kts 65°
2026-05-06 21:42 -24.36737 48.66819 33049 ft 489 kts 65°
2026-05-06 21:42 -24.34001 48.73682 33051 ft 490 kts 65°
2026-05-06 21:43 -24.31244 48.80590 33047 ft 491 kts 65°
2026-05-06 21:43 -24.28510 48.87429 33050 ft 490 kts 65°
2026-05-06 21:44 -24.25761 48.94297 33048 ft 490 kts 65°
2026-05-06 21:44 -24.23015 49.01144 33049 ft 490 kts 65°
2026-05-06 21:45 -24.20259 49.08001 33051 ft 491 kts 65°
2026-05-06 21:45 -24.17495 49.14871 33049 ft 490 kts 65°
2026-05-06 21:46 -24.14731 49.21735 33051 ft 489 kts 65°
2026-05-06 21:46 -24.11966 49.28588 33050 ft 488 kts 65°
2026-05-06 21:47 -24.09209 49.35408 33050 ft 488 kts 65°
2026-05-06 21:47 -24.06449 49.42227 33050 ft 488 kts 65°
2026-05-06 21:48 -24.03686 49.49041 33049 ft 489 kts 65°
2026-05-06 21:48 -24.00931 49.55824 33050 ft 488 kts 65°
2026-05-06 21:49 -23.98163 49.62631 33050 ft 487 kts 65°
2026-05-06 21:49 -23.95405 49.69402 33049 ft 488 kts 64°
2026-05-06 21:50 -23.92638 49.76184 33050 ft 487 kts 65°
2026-05-06 21:50 -23.89878 49.82941 33049 ft 487 kts 65°
2026-05-06 21:51 -23.87112 49.89706 33049 ft 487 kts 65°
2026-05-06 21:51 -23.84332 49.96494 33051 ft 486 kts 64°
2026-05-06 21:52 -23.81561 50.03245 33052 ft 486 kts 65°
2026-05-06 21:52 -23.78788 50.09992 33050 ft 485 kts 65°
2026-05-06 21:53 -23.76031 50.16686 33052 ft 485 kts 65°
2026-05-06 21:53 -23.73252 50.23424 33051 ft 485 kts 65°
2026-05-06 21:54 -23.70449 50.30211 33055 ft 486 kts 65°
2026-05-06 21:54 -23.67674 50.36929 33060 ft 485 kts 65°
2026-05-06 21:55 -23.64905 50.43617 33057 ft 485 kts 65°
2026-05-06 21:55 -23.62111 50.50356 33059 ft 484 kts 65°
2026-05-06 21:56 -23.59330 50.57050 33059 ft 484 kts 65°
2026-05-06 21:56 -23.56546 50.63746 33063 ft 483 kts 65°
2026-05-06 21:57 -23.53764 50.70425 33057 ft 484 kts 64°
2026-05-06 21:57 -23.50978 50.77106 33064 ft 483 kts 64°
2026-05-06 21:58 -23.48194 50.83771 33056 ft 483 kts 64°
2026-05-06 21:58 -23.45401 50.90445 33057 ft 483 kts 65°
2026-05-06 21:59 -23.42595 50.97142 33052 ft 483 kts 65°
2026-05-06 21:59 -23.39812 51.03777 33045 ft 483 kts 65°
2026-05-06 22:00 -23.37003 51.10466 33042 ft 482 kts 64°
2026-05-06 22:00 -23.34209 51.17104 33054 ft 481 kts 65°
2026-05-06 22:01 -23.31420 51.23724 33049 ft 482 kts 65°
2026-05-06 22:01 -23.28629 51.30337 33051 ft 481 kts 65°
2026-05-06 22:02 -23.25824 51.36974 33051 ft 481 kts 65°
2026-05-06 22:02 -23.23037 51.43561 33054 ft 481 kts 65°
2026-05-06 22:03 -23.20224 51.50199 33054 ft 481 kts 65°
2026-05-06 22:03 -23.17416 51.56817 33055 ft 481 kts 65°
2026-05-06 22:04 -23.14618 51.63401 33058 ft 480 kts 65°
2026-05-06 22:04 -23.11817 51.69984 33063 ft 480 kts 64°
2026-05-06 22:05 -23.09015 51.76561 33066 ft 480 kts 64°
2026-05-06 22:05 -23.06208 51.83140 33064 ft 479 kts 64°
2026-05-06 22:06 -23.03407 51.89695 33068 ft 478 kts 64°
2026-05-06 22:06 -23.00594 51.96269 33066 ft 476 kts 64°
2026-05-06 22:07 -22.97781 52.02831 33071 ft 478 kts 64°
2026-05-06 22:07 -22.94967 52.09386 33066 ft 479 kts 64°
2026-05-06 22:08 -22.92143 52.15958 33070 ft 479 kts 64°
2026-05-06 22:08 -22.89332 52.22492 33066 ft 479 kts 65°
2026-05-06 22:09 -22.86493 52.29082 33065 ft 479 kts 65°
2026-05-06 22:09 -22.83681 52.35601 33064 ft 478 kts 65°
2026-05-06 22:10 -22.80849 52.42156 33061 ft 478 kts 65°
2026-05-06 22:10 -22.78021 52.48691 33055 ft 478 kts 65°
2026-05-06 22:11 -22.75189 52.55230 33057 ft 478 kts 65°
2026-05-06 22:11 -22.72363 52.61743 33057 ft 479 kts 65°
2026-05-06 22:12 -22.69517 52.68296 33060 ft 479 kts 64°
2026-05-06 22:12 -22.66681 52.74817 33057 ft 479 kts 64°
2026-05-06 22:13 -22.63834 52.81353 33061 ft 479 kts 64°
2026-05-06 22:13 -22.60984 52.87886 33059 ft 477 kts 64°
2026-05-06 22:14 -22.58123 52.94437 33063 ft 478 kts 64°
2026-05-06 22:14 -22.55269 53.00961 33060 ft 478 kts 64°
2026-05-06 22:15 -22.52412 53.07486 33059 ft 479 kts 64°
2026-05-06 22:15 -22.49567 53.13972 33061 ft 479 kts 64°
2026-05-06 22:16 -22.46692 53.20521 33059 ft 479 kts 64°
2026-05-06 22:16 -22.43810 53.27073 32830 ft 481 kts 64°
2026-05-06 22:17 -22.42385 53.30308 32562 ft 479 kts 64°
2026-05-06 22:17 -22.40903 53.33548 32305 ft 476 kts 63°
2026-05-06 22:17 -22.39260 53.36680 32048 ft 476 kts 57°
2026-05-06 22:17 -22.37341 53.39594 31794 ft 477 kts 52°
2026-05-06 22:18 -22.35228 53.42361 31538 ft 477 kts 49°
2026-05-06 22:18 -22.33006 53.45056 31278 ft 477 kts 47°
2026-05-06 22:18 -22.30778 53.47672 31024 ft 477 kts 47°
2026-05-06 22:18 -22.28491 53.50330 30764 ft 477 kts 46°
2026-05-06 22:19 -22.26226 53.52965 30509 ft 478 kts 47°
2026-05-06 22:19 -22.23979 53.55594 30253 ft 478 kts 47°
2026-05-06 22:19 -22.21736 53.58236 29996 ft 477 kts 47°
2026-05-06 22:19 -22.19505 53.60879 29739 ft 475 kts 47°
2026-05-06 22:20 -22.17269 53.63541 29477 ft 471 kts 47°
2026-05-06 22:20 -22.15090 53.66141 29219 ft 469 kts 47°
2026-05-06 22:20 -22.12866 53.68800 28960 ft 466 kts 47°
2026-05-06 22:20 -22.10700 53.71391 28703 ft 463 kts 47°
2026-05-06 22:21 -22.08528 53.73992 28457 ft 461 kts 47°
2026-05-06 22:21 -22.06389 53.76551 28217 ft 459 kts 47°
2026-05-06 22:21 -22.04266 53.79091 27975 ft 458 kts 47°
2026-05-06 22:21 -22.02140 53.81633 27733 ft 456 kts 47°
2026-05-06 22:22 -22.00009 53.84180 27488 ft 453 kts 48°
2026-05-06 22:22 -21.97902 53.86698 27247 ft 452 kts 48°
2026-05-06 22:22 -21.95792 53.89217 27005 ft 451 kts 48°
2026-05-06 22:22 -21.93699 53.91714 26764 ft 449 kts 48°
2026-05-06 22:23 -21.91624 53.94190 26525 ft 447 kts 48°
2026-05-06 22:23 -21.89538 53.96676 26283 ft 444 kts 48°
2026-05-06 22:23 -21.87465 53.99147 26041 ft 441 kts 48°
2026-05-06 22:23 -21.85384 54.01628 25797 ft 439 kts 48°
2026-05-06 22:24 -21.83347 54.04054 25561 ft 436 kts 48°
2026-05-06 22:24 -21.81315 54.06472 25321 ft 435 kts 48°
2026-05-06 22:24 -21.79296 54.08875 25082 ft 432 kts 49°
2026-05-06 22:24 -21.77295 54.11254 24845 ft 430 kts 49°
2026-05-06 22:25 -21.75278 54.13654 24604 ft 428 kts 48°
2026-05-06 22:25 -21.73283 54.16025 24366 ft 426 kts 49°
2026-05-06 22:25 -21.71293 54.18388 24125 ft 424 kts 49°
2026-05-06 22:25 -21.69318 54.20732 23889 ft 422 kts 49°
2026-05-06 22:26 -21.67368 54.23046 23652 ft 420 kts 49°
2026-05-06 22:26 -21.65398 54.25382 23415 ft 418 kts 49°
2026-05-06 22:26 -21.63451 54.27690 23181 ft 416 kts 49°
2026-05-06 22:26 -21.61524 54.29973 22946 ft 409 kts 49°
2026-05-06 22:27 -21.59628 54.32219 22710 ft 399 kts 49°
2026-05-06 22:27 -21.57773 54.34416 22470 ft 389 kts 49°
2026-05-06 22:27 -21.55980 54.36539 22238 ft 379 kts 49°
2026-05-06 22:27 -21.54223 54.38618 21949 ft 374 kts 49°
2026-05-06 22:28 -21.52485 54.40675 21523 ft 372 kts 49°
2026-05-06 22:28 -21.50756 54.42720 21049 ft 370 kts 49°
2026-05-06 22:28 -21.49013 54.44781 20556 ft 369 kts 49°
2026-05-06 22:28 -21.47290 54.46817 20065 ft 368 kts 49°
2026-05-06 22:29 -21.45589 54.48826 19580 ft 366 kts 49°
2026-05-06 22:29 -21.43883 54.50841 19062 ft 360 kts 49°
2026-05-06 22:29 -21.42209 54.52815 18603 ft 349 kts 49°
2026-05-06 22:29 -21.40593 54.54722 18138 ft 343 kts 49°
2026-05-06 22:30 -21.39009 54.56593 17667 ft 334 kts 49°
2026-05-06 22:30 -21.37450 54.58433 17223 ft 327 kts 49°
2026-05-06 22:30 -21.35929 54.60228 16759 ft 326 kts 49°
2026-05-06 22:30 -21.34406 54.62024 16276 ft 322 kts 49°
2026-05-06 22:31 -21.32927 54.63766 15864 ft 312 kts 49°
2026-05-06 22:31 -21.31482 54.65465 15434 ft 305 kts 49°
2026-05-06 22:31 -21.30073 54.67124 15041 ft 298 kts 49°
2026-05-06 22:31 -21.28658 54.68790 14583 ft 300 kts 49°
2026-05-06 22:32 -21.27259 54.70437 14152 ft 300 kts 49°
2026-05-06 22:32 -21.25860 54.72083 13728 ft 293 kts 49°
2026-05-06 22:32 -21.24502 54.73677 13323 ft 286 kts 49°
2026-05-06 22:32 -21.23175 54.75236 13013 ft 278 kts 49°
2026-05-06 22:33 -21.21886 54.76751 12831 ft 274 kts 49°
2026-05-06 22:33 -21.20606 54.78256 12747 ft 273 kts 49°
2026-05-06 22:33 -21.19322 54.79765 12630 ft 271 kts 49°
2026-05-06 22:33 -21.18063 54.81243 12527 ft 269 kts 49°
2026-05-06 22:34 -21.16801 54.82725 12423 ft 270 kts 49°
2026-05-06 22:34 -21.15532 54.84213 12316 ft 269 kts 49°
2026-05-06 22:34 -21.14267 54.85696 12209 ft 269 kts 49°
2026-05-06 22:34 -21.12994 54.87188 11955 ft 271 kts 49°
2026-05-06 22:35 -21.11716 54.88687 11533 ft 274 kts 49°
2026-05-06 22:35 -21.10419 54.90206 11183 ft 273 kts 49°
2026-05-06 22:35 -21.09147 54.91696 10849 ft 272 kts 49°
2026-05-06 22:35 -21.07861 54.93200 10514 ft 270 kts 49°
2026-05-06 22:36 -21.06597 54.94680 10145 ft 271 kts 49°
2026-05-06 22:36 -21.05308 54.96188 9765 ft 271 kts 49°
2026-05-06 22:36 -21.04057 54.97652 9428 ft 264 kts 49°
2026-05-06 22:36 -21.02825 54.99092 9119 ft 255 kts 49°
2026-05-06 22:37 -21.01655 55.00460 8817 ft 248 kts 49°
2026-05-06 22:37 -21.00492 55.01820 8518 ft 241 kts 49°
2026-05-06 22:37 -20.99364 55.03141 8225 ft 240 kts 49°
2026-05-06 22:37 -20.98243 55.04452 7951 ft 239 kts 49°
2026-05-06 22:38 -20.97119 55.05766 7637 ft 239 kts 49°
2026-05-06 22:38 -20.95988 55.07087 7351 ft 237 kts 49°
2026-05-06 22:38 -20.94868 55.08395 7065 ft 236 kts 49°
2026-05-06 22:38 -20.93762 55.09686 6781 ft 235 kts 49°
2026-05-06 22:39 -20.92667 55.10965 6500 ft 234 kts 49°
2026-05-06 22:39 -20.91567 55.12248 6217 ft 232 kts 49°
2026-05-06 22:39 -20.90476 55.13520 5936 ft 231 kts 49°
2026-05-06 22:39 -20.89385 55.14792 5661 ft 230 kts 49°
2026-05-06 22:40 -20.88308 55.16048 5373 ft 224 kts 49°
2026-05-06 22:40 -20.87264 55.17265 5131 ft 218 kts 49°
2026-05-06 22:40 -20.86257 55.18439 4862 ft 211 kts 49°
2026-05-06 22:40 -20.85278 55.19580 4634 ft 206 kts 49°
2026-05-06 22:41 -20.83314 55.21817 4119 ft 204 kts 48°
2026-05-06 22:41 -20.82334 55.22913 3878 ft 202 kts 48°
2026-05-06 22:41 -20.81365 55.23999 3641 ft 201 kts 48°
2026-05-06 22:42 -20.80401 55.25081 3506 ft 198 kts 48°
2026-05-06 22:42 -20.79448 55.26161 3457 ft 200 kts 50°
2026-05-06 22:42 -20.78706 55.27403 3394 ft 198 kts 75°
2026-05-06 22:42 -20.78703 55.28838 3343 ft 198 kts 108°
2026-05-06 22:43 -20.79375 55.30147 3289 ft 200 kts 125°
2026-05-06 22:43 -20.80202 55.31340 3240 ft 200 kts 122°
2026-05-06 22:43 -20.80750 55.32690 3237 ft 199 kts 94°
2026-05-06 22:43 -20.80483 55.34117 3243 ft 199 kts 60°
2026-05-06 22:44 -20.79565 55.35225 3251 ft 201 kts 38°
2026-05-06 22:44 -20.78275 55.35829 3242 ft 204 kts
2026-05-06 22:44 -20.76889 55.35550 3242 ft 210 kts 333°
2026-05-06 22:44 -20.75782 55.34528 3236 ft 213 kts 305°
2026-05-06 22:45 -20.75139 55.33089 3236 ft 212 kts 292°
2026-05-06 22:45 -20.74588 55.31626 3233 ft 212 kts 294°
2026-05-06 22:45 -20.73996 55.30181 3232 ft 212 kts 295°
2026-05-06 22:45 -20.73390 55.28742 3232 ft 212 kts 295°
2026-05-06 22:46 -20.72789 55.27307 3239 ft 209 kts 295°
2026-05-06 22:46 -20.72218 55.25934 3233 ft 193 kts 295°
2026-05-06 22:46 -20.71816 55.24582 3225 ft 190 kts 276°
2026-05-06 22:46 -20.72068 55.23210 3227 ft 192 kts 238°
2026-05-06 22:47 -20.72980 55.22187 3234 ft 189 kts 212°
2026-05-06 22:47 -20.74186 55.21622 3229 ft 187 kts 186°
2026-05-06 22:47 -20.75435 55.21787 3230 ft 182 kts 154°
2026-05-06 22:47 -20.76486 55.22553 3232 ft 179 kts 131°
2026-05-06 22:48 -20.77149 55.23663 3234 ft 178 kts 111°
2026-05-06 22:48 -20.77601 55.24884 3232 ft 176 kts 111°
2026-05-06 22:48 -20.77952 55.26156 3239 ft 181 kts 94°
2026-05-06 22:48 -20.78005 55.27483 3238 ft 176 kts 97°
2026-05-06 22:49 -20.78311 55.28737 3236 ft 172 kts 110°
2026-05-06 22:49 -20.78768 55.29870 3192 ft 156 kts 114°
2026-05-06 22:49 -20.79214 55.30867 3140 ft 148 kts 115°
2026-05-06 22:49 -20.79672 55.31859 3163 ft 144 kts 115°
2026-05-06 22:50 -20.80127 55.32831 3151 ft 153 kts 115°
2026-05-06 22:50 -20.80603 55.33841 3100 ft 153 kts 115°
2026-05-06 22:50 -20.81091 55.34873 3074 ft 156 kts 116°
2026-05-06 22:50 -20.81562 55.35871 3070 ft 145 kts 116°
2026-05-06 22:51 -20.82031 55.36868 2861 ft 155 kts 115°
2026-05-06 22:51 -20.82536 55.37936 2600 ft 159 kts 115°
2026-05-06 22:51 -20.83024 55.38974 2391 ft 154 kts 116°
2026-05-06 22:51 -20.83499 55.39977 2183 ft 149 kts 115°
2026-05-06 22:52 -20.83966 55.40969 1998 ft 150 kts 116°
2026-05-06 22:52 -20.84437 55.41970 1794 ft 149 kts 116°
2026-05-06 22:52 -20.84895 55.42939 1598 ft 143 kts 116°
2026-05-06 22:52 -20.85345 55.43894 1417 ft 144 kts 116°
2026-05-06 22:53 -20.85794 55.44847 1230 ft 144 kts 117°
2026-05-06 22:53 -20.86248 55.45813 1043 ft 149 kts 117°
2026-05-06 22:53 -20.86709 55.46790 839 ft 144 kts 117°
2026-05-06 22:53 -20.87158 55.47744 659 ft 145 kts 118°
2026-05-06 22:54 -20.87618 55.48722 468 ft 145 kts 118°
2026-05-06 22:54 -20.88075 55.49690 278 ft 146 kts 119°
2026-05-06 22:54 -20.88534 55.50671 91 ft 147 kts 119°
2026-05-06 22:54 -20.88972 55.51593 91 ft 111 kts 119°
2026-05-06 22:55 -20.89180 55.52039 95 ft 30 kts 116°
2026-05-06 22:55 -20.89258 55.52202 97 ft 15 kts 128°
2026-05-06 22:55 -20.89339 55.52216 100 ft 10 kts 203°
2026-05-06 22:55 -20.89382 55.52187 104 ft 5 kts 226°
2026-05-06 22:56 -20.89396 55.52126 106 ft 14 kts 277°
2026-05-06 22:56 -20.89343 55.51994 106 ft 22 kts 295°
2026-05-06 22:56 -20.89278 55.51848 108 ft 21 kts 298°
2026-05-06 22:56 -20.89212 55.51709 107 ft 21 kts 295°
2026-05-06 22:57 -20.89145 55.51566 104 ft 21 kts 296°
2026-05-06 22:57 -20.89109 55.51489 102 ft 0 kts 296°
2026-05-06 22:57 -20.89105 55.51479 102 ft 6 kts 296°
2026-05-06 22:57 -20.89082 55.51431 101 ft 7 kts 296°
2026-05-06 22:58 -20.89053 55.51370 100 ft 10 kts 296°
2026-05-06 22:58 -20.89056 55.51324 99 ft 5 kts 174°
2026-05-06 22:58 -20.89075 55.51318 100 ft 0 kts 202°
2026-05-06 22:58 -20.89095 55.51309 102 ft 6 kts 204°
2026-05-06 22:59 -20.89102 55.51305 102 ft 0 kts 207°
2026-05-06 22:59 -20.89107 55.51302 102 ft 0 kts 207°
2026-05-06 22:59 -20.89113 55.51299 103 ft 0 kts 207°
2026-05-06 22:59 -20.89114 55.51299 103 ft 0 kts 207°